OPS 4682 DEB, 38399

Orbit data source: Space-Track

OPS 4682 DEB, 38399 is space debris in LEO originally from a launch on Sat, 03 Apr 1965 UTC launched from the Air Force Western Test Range (AFWTR). Debris objects in space refer to the collection of defunct objects orbiting the Earth. Examples of debris include non-operational satellites, rocket bodies, and fragments generated from explosions, collisions, or faulty payload assembly.

Loading next visibility...
Identifier
38399, 1965-027DC
Orbit
LEO
Country
Flag of USUS
Related business
Manufacturer
Unknown
Mission
Spacecraft
Bus & Motor
Unknown
Mass
Unknown
Launch date (UTC)
1965-04-03 (61 years ago)
Launch vehicle
Unknown
Launch site
Air Force Western Test Range (AFWTR)
Object type
Payload
Rocket body
Debris
Shape & HBR
Unknown shape, 0.1 m
Radar Cross Section
Small (<0.1 m²)

Expand to show TLE details & history
Last TLE update: 7 hours ago

TLE from 7 hours ago
0 OPS 4682 DEB
1 38399U 65027DC  26104.21493480  .00000383  00000-0  13064-2 0  9996
2 38399  90.2593  15.7341 0025169 294.3509  65.4984 12.96835329654467
Epoch: 2026-04-14T05:09Z
TLE epoch observation values (Epoch: 2026-04-14T05:09:30.366Z)
Latitude
-0.00004°
Longitude
95.96319°
Altitude
1,269.441 km
Speed
7.225 km/s
True Right ascension
01h 02m 56s
True Declination
0° 00' 00"
Sunlit
Object was in daylight at epoch
Visualization orbit readout
Latitude
Unknown
Longitude
Unknown
Altitude
Unknown
Speed
Unknown
Apparent Right ascension
Unknown
Apparent Declination
Unknown
Sunlit
N/A
Visualization observer readout
Local Sidereal Time
18:50:24
Azimuth
Unknown
Elevation
Unknown
Doppler factor
Unknown
Orbital elements
Apogee altitude
1,290.897 km
Perigee altitude
1,252.389 km
Semi-major axis
7,649.78 km
Eccentricity
0.00252
Inclination
90.2593°
RAAN
15.7341°
Arg. of periapsis
294.3509°
True anomaly
65.76119°
Mean anomaly
65.4984°
Eccentric anomaly
65.62976°
Mean motion
3.24392 °/min
Orbital period
110.98 mins
BSTAR
0.0013064
Loading maneuver chart data...
Computing Atmospheric mass density...
Loading historical data...
Loading historical data...
Loading historical data...
Loading historical data...
Loading historical data...
Loading historical data...
Loading historical data...

Documentation

Showing up to 5 results
|